PI1GDA-1 Weather Reports


time (UTC)temp
F
wind
direction
speed
knots
gust
knots
rain 1hr
in
rain 24hr
in
rain mn
in
humidity
%
barometer
mb
20260506023640 50 45 2.6 10.4 0.00 0.00 0.00 84 1009.6
20260506022640 50 0 3.5 10.4 0.00 0.00 0.00 84 1009.6
20260506021639 50 0 3.5 10.4 0.00 0.00 0.00 84 1009.6
20260506020638 50 338 3.5 10.4 0.00 0.00 0.00 84 1009.6
20260506015636 49 315 3.5 9.6 0.00 0.00 0.00 84 1009.6
20260506014634 49 22 3.5 9.6 0.00 0.00 0.00 84 1009.6
20260506013633 49 0 3.5 9.6 0.00 0.00 0.00 84 1009.7
20260506012633 50 22 2.6 9.6 0.00 0.00 0.00 84 1009.7
20260506011630 50 22 3.5 9.6 0.00 0.00 0.00 83 1009.7
20260506010629 50 315 3.5 9.6 0.00 0.00 0.00 84 1009.8
20260506005629 50 45 3.5 9.6 0.00 0.00 0.00 83 1009.9
20260506004627 50 338 3.5 9.6 0.00 0.00 0.00 83 1010.0
20260506003627 50 338 3.5 9.6 0.00 0.00 0.00 83 1010.0
20260506002626 50 338 3.5 9.6 0.00 0.00 0.00 83 1010.2
20260506001624 50 22 2.6 9.6 0.00 0.00 0.00 82 1010.4
20260506000624 50 0 3.5 9.6 0.00 0.00 0.00 82 1010.3
20260505235623 50 22 3.5 9.6 0.00 0.00 0.00 82 1010.3
20260505234622 50 45 2.6 9.6 0.00 0.00 0.00 82 1010.4
20260505233620 50 315 2.6 9.6 0.00 0.00 0.00 82 1010.4
20260505232620 50 0 2.6 9.6 0.00 0.00 0.00 82 1010.5
20260505231619 50 0 2.6 9.6 0.00 0.00 0.00 81 1010.7
20260505230619 50 22 2.6 8.7 0.00 0.00 0.00 81 1010.8
20260505225617 50 0 2.6 8.7 0.00 0.00 0.00 80 1010.8
20260505224617 50 338 2.6 8.7 0.00 0.00 0.00 80 1010.8
20260505223615 50 0 2.6 8.7 0.00 0.00 0.00 80 1011.0
20260505222614 50 22 2.6 8.7 0.00 0.00 0.00 79 1010.9
20260505221613 51 338 3.5 8.7 0.00 0.00 0.00 79 1011.0
20260505220613 51 315 4.3 6.1 0.00 0.00 0.00 79 1010.8
20260505215611 51 90 4.3 16.5 0.00 0.00 0.00 79 1010.9
20260505214610 51 0 3.5 16.5 0.00 0.00 0.00 78 1011.0
20260505213610 51 0 3.5 16.5 0.00 0.00 0.00 78 1011.2
20260505212609 51 0 4.3 16.5 0.00 0.00 0.00 78 1011.2
20260505211607 51 45 4.3 16.5 0.00 0.00 0.00 78 1011.2
20260505210607 51 0 5.2 16.5 0.00 0.00 0.00 78 1011.2
20260505205605 52 0 5.2 16.5 0.00 0.00 0.00 78 1011.3
20260505204604 52 22 3.5 16.5 0.00 0.00 0.00 79 1011.4
20260505203601 52 22 2.6 16.5 0.00 0.00 0.00 79 1011.4
20260505202559 52 0 2.6 16.5 0.00 0.00 0.00 79 1011.4
20260505201559 52 0 2.6 16.5 0.00 0.00 0.00 79 1011.3
20260505200557 53 338 3.5 16.5 0.00 0.00 0.00 79 1011.3
20260505195556 53 68 3.5 16.5 0.00 0.00 0.00 78 1011.3
20260505194556 53 338 4.3 16.5 0.00 0.00 0.00 78 1011.1
20260505193555 53 22 4.3 16.5 0.00 0.00 0.00 78 1011.0
20260505192555 53 45 4.3 16.5 0.00 0.00 0.00 78 1010.9
20260505191554 54 68 5.2 16.5 0.00 0.00 0.00 77 1010.8
20260505190554 54 22 4.3 16.5 0.00 0.00 0.00 77 1010.7
20260505185553 54 22 6.1 16.5 0.00 0.00 0.00 76 1010.6
20260505184553 54 90 5.2 16.5 0.00 0.00 0.00 75 1010.5
20260505183549 55 112 6.1 16.5 0.00 0.00 0.00 75 1010.4
20260505182549 55 68 5.2 16.5 0.00 0.00 0.00 74 1010.6
20260505181549 56 68 5.2 16.5 0.00 0.00 0.00 74 1010.5
20260505180548 56 0 6.1 16.5 0.00 0.00 0.00 74 1010.5
20260505175546 56 22 5.2 16.5 0.00 0.00 0.00 73 1010.5
20260505174546 57 22 6.1 16.5 0.00 0.00 0.00 72 1010.6
20260505173545 57 22 5.2 16.5 0.00 0.00 0.00 71 1010.5
20260505172544 58 45 5.2 16.5 0.00 0.00 0.00 70 1010.7
20260505171541 58 68 5.2 16.5 0.00 0.00 0.00 70 1010.6
20260505170540 58 45 6.1 16.5 0.00 0.00 0.00 70 1010.7
20260505165540 59 45 5.2 16.5 0.00 0.00 0.00 70 1010.7
20260505164539 59 45 5.2 16.5 0.00 0.00 0.00 69 1010.7
20260505163538 59 45 5.2 16.5 0.00 0.00 0.00 70 1010.7
20260505162537 59 45 6.1 16.5 0.00 0.00 0.00 69 1010.8
20260505161536 60 68 6.1 16.5 0.00 0.00 0.00 68 1010.9
20260505160536 60 68 5.2 16.5 0.00 0.00 0.00 67 1010.9
20260505152532 59 0 5.2 16.5 0.00 0.00 0.00 71 1010.9
20260505151531 59 68 5.2 16.5 0.00 0.00 0.00 68 1011.0
20260505150531 61 45 5.2 16.5 0.00 0.00 0.00 65 1011.0
20260505140525 60 45 5.2 16.5 0.00 0.00 0.00 67 1011.2
20260505124519 61 45 5.2 16.5 0.00 0.00 0.00 67 1011.7
20260505123519 60 45 5.2 16.5 0.00 0.00 0.00 69 1011.7
20260505122519 59 68 6.1 16.5 0.00 0.00 0.00 71 1011.7
20260505121518 59 68 6.1 16.5 0.00 0.00 0.00 71 1011.7
20260505120517 59 22 7.0 16.5 0.00 0.00 0.00 72 1011.8
20260505115517 59 90 6.1 14.8 0.00 0.00 0.00 71 1011.6
20260505114516 59 22 5.2 14.8 0.00 0.00 0.00 71 1011.7
20260505113515 58 112 5.2 14.8 0.00 0.00 0.00 72 1011.9
20260505112513 58 0 5.2 14.8 0.00 0.00 0.00 75 1012.0
20260505111511 58 45 5.2 14.8 0.00 0.00 0.00 75 1012.1
20260505110509 57 22 5.2 14.8 0.00 0.00 0.00 74 1012.1